Location: Arrien
(42.8963°N, 1.0429°E)
Time: 14:03:18
(UTC+00:00)

Cosmos 1825 Rocket - Pass Details

Date: 11 December 2025
Orbit: 597 x 624 km, 82.5° (Epoch: 19 January)

Event Time Altitude Azimuth Distance (km) Brightness Sun altitude
Rises 17:21:21 0° 356° (N) 2,879 6.8 -10.6°
Reaches altitude 10° 17:23:38 10° 0° (N) 1,966 5.9 -11.0°
Maximum altitude 17:27:54 55° 79° (E) 727 3.6 -11.8°
Drops below altitude 10° 17:32:06 10° 158° (SSE) 1,936 6.1 -12.5°
Sets 17:34:20 0° 163° (SSE) 2,830 7.0 -12.9°
